Location: Newark
(44.4156°N, 12.1972°E)
Time: 10:43:47
(UTC+00:00)

Envisat - Visible Passes

Search period start: 24 January 2020 00:00
Search period end: 03 February 2020 00:00
Orbit: 764 x 766 km, 98.1° (Epoch: 23 January)

Date Brightness Start Highest point End Pass type
(mag) Time Alt. Az. Time Alt. Az. Time Alt. Az.
24 Jan 5.0 05:11:14 10° NNE 05:15:45 31° E 05:20:14 10° SSE visible
24 Jan 5.5 18:07:27 10° SW 18:11:20 22° W 18:15:15 10° NW visible
25 Jan 6.1 04:35:48 10° NE 04:38:37 15° E 04:41:24 10° ESE visible
25 Jan 4.2 17:29:25 10° S 17:34:18 46° W 17:39:13 10° NNW visible
26 Jan 3.9 05:36:22 10° NNE 05:41:22 54° E 05:46:20 10° S visible
26 Jan 3.0 16:52:23 10° SSE 16:57:27 82° ENE 17:02:35 10° NNW visible
26 Jan 6.3 18:34:58 10° WSW 18:37:07 13° W 18:39:17 10° WNW visible
27 Jan 5.4 05:00:12 10° NE 05:04:23 25° E 05:08:32 10° SSE visible
27 Jan 5.2 17:55:39 10° SSW 17:59:56 27° W 18:04:16 10° NW visible
28 Jan 6.4 04:25:33 10° ENE 04:27:10 11° E 04:28:47 10° ESE visible
28 Jan 3.1 06:01:46 10° NNE 06:06:53 89° WNW 06:11:58 10° SSW visible
28 Jan 3.7 17:17:58 10° S 17:22:58 59° W 17:28:00 10° NNW visible
29 Jan 4.4 05:25:11 10° NNE 05:30:02 43° E 05:34:50 10° S visible
29 Jan 3.0 16:41:10 10° SSE 16:46:12 66° ENE 16:51:15 10° N visible
29 Jan 6.0 18:22:36 10° SW 18:25:41 16° W 18:28:47 10° NW visible
30 Jan 5.8 04:49:15 10° NE 04:52:59 20° E 04:56:40 10° SE visible
30 Jan 4.8 17:43:59 10° SSW 17:48:34 34° W 17:53:11 10° NNW visible
31 Jan 3.3 05:50:29 10° NNE 05:55:35 74° ESE 06:00:40 10° S visible
31 Jan 3.3 17:06:35 10° S 17:11:39 74° WSW 17:16:45 10° NNW visible
01 Feb 4.9 05:14:04 10° NNE 05:18:41 34° E 05:23:16 10° SSE visible
01 Feb 5.7 18:10:34 10° SW 18:14:16 20° W 18:17:59 10° NW visible
02 Feb 6.1 04:38:27 10° NE 04:41:34 16° E 04:44:39 10° SE visible
02 Feb 4.4 17:32:25 10° S 17:37:13 42° W 17:42:03 10° NNW visible
